Content
SEND FEEDBACK

Daily
Averages
Monthly
Summary
United States of America

CAMP QUEZON, GUAM


Home > North America > United States > Guam
Elevation: 269 feet     Latitude: 13 28N     Longitude: 144 48E

WEATHER
 
SELECT A DAY
Number of Records: 209,285;   Date Range: 1/1/95 - 9/16/14
 
SHARE

PRINT THIS DATA

[ ← Previous Day ]
WEATHER ALMANAC - JULY 16, 2013
[ Next Day → ]
[ °C ]   °F
Weather ElementAverageHighLow
Temperature85.1 °F90 °F (1:54 pm)81 °F (8:54 pm)
Dewpoint76.4 °F77 °F (2:54 am)73 °F (7:54 pm)
Humidity75.4 %88 % (9:54 pm)61 % (2:54 pm)
Barometer29.81 in29.85 in (9:54 pm)29.75 in (3:54 pm)
Wind Speed6.1 mph10.4 mph (8:54 am)
Weather ElementAverage
Visibility10 mi
Wind DirectionESE (107 °)

Weather ElementTotal
Precipitation---
Cooling Degree Days20.5 (Base 65)
Growing Degree Days35.5 (Base 50)
Averaged from 27 records on July 16, 2013
WEATHER CONDITIONS BREAKOUT
WIND DIRECTION BREAKOUT
WEATHER BY HOUR - JULY 16, 2013
[ °C ]   °F
Local TimeTemperatureDewpointHumidityBarometerVisibilityWind DirectionWind SpeedGust SpeedPrecipitationEventsConditions
1:54 AM82.0 °F75.9 °F82 %29.79 in10.0 miEast (100°)3.5 mphPartly Cloudy
2:54 AM82.0 °F77.0 °F85 %29.78 in10.0 miCalmPartly Cloudy
3:54 AM82.0 °F77.0 °F85 %29.78 in10.0 miESE (110°)4.6 mphClear
4:54 AM82.0 °F77.0 °F85 %29.79 in10.0 miESE (110°)4.6 mphPartly Cloudy
5:54 AM82.0 °F75.9 °F82 %29.79 in10.0 miSE (130°)5.8 mphClear
6:54 AM82.9 °F77.0 °F82 %29.81 in10.0 miESE (110°)4.6 mph0.00 inPartly Cloudy
7:54 AM84.9 °F77.0 °F77 %29.82 in10.0 miSE (130°)8.1 mphPartly Cloudy
8:54 AM87.1 °F77.0 °F72 %29.83 in10.0 miESE (110°)10.4 mphScattered Clouds
9:54 AM88.0 °F77.0 °F70 %29.82 in10.0 miESE (110°)10.4 mphScattered Clouds
10:50 AM86.0 °F77.0 °F74 %29.84 in10.0 miEast (100°)9.2 mph0.00 inMostly Cloudy
10:54 AM86.0 °F77.0 °F74 %29.82 in10.0 miESE (110°)6.9 mph0.00 inMostly Cloudy
11:35 AM87.8 °F77.0 °F70 %29.84 in10.0 miSouth (170°)9.2 mphMostly Cloudy
11:54 AM88.0 °F77.0 °F70 %29.81 in10.0 miSSE (150°)9.2 mphMostly Cloudy
12:21 PM89.6 °F75.2 °F62 %29.83 in10.0 miSE (140°)8.1 mphScattered Clouds
12:54 PM89.1 °F75.9 °F65 %29.79 in10.0 miSE (130°)8.1 mphPartly Cloudy
1:54 PM90.0 °F77.0 °F65 %29.77 in10.0 miSE (140°)9.2 mphScattered Clouds
2:54 PM89.1 °F73.9 °F61 %29.76 in10.0 miSE (140°)9.2 mphScattered Clouds
3:54 PM89.1 °F75.9 °F65 %29.75 in10.0 miVariable6.9 mphPartly Cloudy
4:54 PM86.0 °F77.0 °F74 %29.77 in10.0 miESE (120°)4.6 mphPartly Cloudy
5:37 PM84.2 °F77.0 °F79 %29.81 in10.0 miSE (130°)3.5 mphThunderstormThunderstorm
5:54 PM86.0 °F77.0 °F74 %29.79 in10.0 miEast (100°)4.6 mphPartly Cloudy
6:54 PM86.0 °F77.0 °F74 %29.81 in10.0 miEast (90°)4.6 mphPartly Cloudy
7:54 PM84.0 °F73.0 °F69 %29.83 in10.0 miENE (70°)6.9 mph0.00 inPartly Cloudy
8:54 PM81.0 °F75.0 °F82 %29.84 in10.0 miCalm0.00 inRainLight Rain
9:54 PM81.0 °F77.0 °F88 %29.85 in10.0 miSSE (150°)3.5 mphPartly Cloudy
10:54 PM81.0 °F75.9 °F85 %29.85 in10.0 miSE (130°)4.6 mphPartly Cloudy
11:54 PM82.0 °F77.0 °F85 %29.84 in10.0 miESE (110°)4.6 mphPartly Cloudy
Hourly data recorded from PGUM, located miles away from Camp Quezon, Guam







STORIES FROM OUR PARTNERS